Language: 


Des rapports , des résumés tant et plus, au choix de chacun....


Données statistiques de la station
Quotidien Rapport Février 6, 2017 Unités:  Métrique    Anglais   les deux
« Précédent Jour
Suivant Jour »
Quotidien Hebdomadaire Mensuel Annuel Actuel
  Haut: Bas: Moyen:
Température: 9.7 °C 2.8 °C 5.9 °C
Pt de rosée: 8.3 °C 2.3 °C 5.1 °C
Humidité: 98 % 81 % 95 %
Vitesse du vent: 19.5 km/h 0.0 km/h 3 km/h
Rafales: 20.6 km/h - -
Vent:- - WSW
Pression: 1018.8 hPa 1009.0 hPa -
Précipitation: 1.0 mm    
Historical Graphs
 
 
Données statistiques pour Février 6, 2017
Heure Température Point de rosée Pression Vent Vitesse du vent Refales Humidité Pluie (taux horaire)
00:00 5.2 °C 4.9 °C 1009.0 hPa North 9.3 km/h 16.3 km/h 98 % 1.8 mm
00:05 5.2 °C 4.9 °C 1009.0 hPa North 13.0 km/h 20.6 km/h 98 % 1.5 mm
00:10 5.2 °C 4.9 °C 1010.0 hPa North 14.0 km/h 20.6 km/h 98 % 1.8 mm
00:15 5.2 °C 4.9 °C 1010.0 hPa NNE 19.5 km/h 19.8 km/h 98 % 1.5 mm
00:20 5.2 °C 4.9 °C 1010.0 hPa NNE 17.2 km/h 19.5 km/h 98 % 1.8 mm
00:25 5.2 °C 4.9 °C 1010.0 hPa NNE 6.9 km/h 19.5 km/h 98 % 1.8 mm
00:30 5.2 °C 4.9 °C 1010.0 hPa NNE 6.9 km/h 17.2 km/h 98 % 1.5 mm
00:35 5.2 °C 4.9 °C 1010.0 hPa NNE 6.9 km/h 6.9 km/h 98 % 1.3 mm
00:40 5.2 °C 4.9 °C 1010.0 hPa NE 12.2 km/h 12.2 km/h 98 % 1.5 mm
00:45 5.2 °C 4.9 °C 1010.0 hPa NE 12.2 km/h 12.2 km/h 98 % 1.0 mm
00:50 5.2 °C 4.9 °C 1010.0 hPa NNE 9.7 km/h 12.2 km/h 98 % 1.0 mm
00:55 5.2 °C 4.9 °C 1011.1 hPa NNE 9.7 km/h 12.2 km/h 98 % 1.0 mm
01:00 5.2 °C 4.9 °C 1011.1 hPa North 13.0 km/h 13.0 km/h 98 % 0.8 mm
01:05 5.2 °C 4.9 °C 1011.1 hPa NNW 4.3 km/h 16.6 km/h 98 % 0.8 mm
01:10 5.1 °C 4.8 °C 1011.1 hPa NNW 9.3 km/h 16.6 km/h 98 % 0.5 mm
01:15 5.1 °C 4.8 °C 1011.1 hPa NNE 7.9 km/h 10.1 km/h 98 % 0.5 mm
01:20 5.1 °C 4.8 °C 1011.1 hPa NNW 2.1 km/h 10.1 km/h 98 % 0.3 mm
01:25 5.1 °C 4.8 °C 1011.1 hPa North 7.9 km/h 12.2 km/h 98 % 0.3 mm
01:30 5.1 °C 4.8 °C 1011.1 hPa NNE 6.1 km/h 12.2 km/h 98 % 0.3 mm
01:35 5.1 °C 4.8 °C 1011.1 hPa NNW 7.9 km/h 7.9 km/h 98 % 0.3 mm
01:40 5.1 °C 4.8 °C 1010.0 hPa North 11.6 km/h 11.6 km/h 98 % 0.0 mm
01:45 5.1 °C 4.8 °C 1010.0 hPa North 11.6 km/h 11.6 km/h 98 % 0.0 mm
01:50 5.1 °C 4.8 °C 1010.0 hPa North 6.1 km/h 11.9 km/h 98 % 0.0 mm
01:55 5.1 °C 4.8 °C 1011.1 hPa North 6.1 km/h 11.9 km/h 98 % 0.0 mm
02:02 5.1 °C 4.8 °C 1011.1 hPa North 9.3 km/h 10.1 km/h 98 % 0.0 mm
02:07 5.1 °C 4.8 °C 1010.0 hPa North 5.5 km/h 9.3 km/h 98 % 0.0 mm
02:12 5.1 °C 4.8 °C 1010.0 hPa North 6.1 km/h 11.9 km/h 98 % 0.0 mm
02:17 5.1 °C 4.8 °C 1010.0 hPa North 6.1 km/h 16.9 km/h 98 % 0.3 mm
02:22 5.1 °C 4.8 °C 1011.1 hPa North 5.0 km/h 16.9 km/h 98 % 0.3 mm
02:27 5.0 °C 4.7 °C 1011.1 hPa North 10.5 km/h 14.0 km/h 98 % 0.3 mm
02:32 5.0 °C 4.7 °C 1011.1 hPa NNE 6.9 km/h 12.6 km/h 98 % 0.3 mm
02:37 4.9 °C 4.6 °C 1011.1 hPa NNE 6.4 km/h 12.6 km/h 98 % 0.3 mm
02:42 4.9 °C 4.6 °C 1011.1 hPa NE 4.0 km/h 11.9 km/h 98 % 0.3 mm
02:47 4.9 °C 4.6 °C 1011.1 hPa Calm   10.5 km/h 98 % 0.3 mm
02:52 4.8 °C 4.5 °C 1011.1 hPa North 10.1 km/h 10.5 km/h 98 % 0.3 mm
02:57 4.8 °C 4.5 °C 1011.1 hPa NNW 1.8 km/h 10.1 km/h 98 % 0.3 mm
03:02 4.7 °C 4.4 °C 1011.1 hPa Calm   10.1 km/h 98 % 0.3 mm
03:07 4.7 °C 4.4 °C 1012.1 hPa NW 6.9 km/h 9.0 km/h 98 % 0.3 mm
03:12 4.7 °C 4.4 °C 1012.1 hPa West 5.0 km/h 9.0 km/h 98 % 0.3 mm
03:17 4.7 °C 4.4 °C 1012.1 hPa North 3.5 km/h 7.9 km/h 98 % 0.0 mm
03:22 4.6 °C 4.3 °C 1012.1 hPa NNW 4.0 km/h 7.9 km/h 98 % 0.0 mm
03:27 4.6 °C 4.3 °C 1012.1 hPa WNW 5.8 km/h 5.8 km/h 98 % 0.0 mm
03:32 4.5 °C 4.2 °C 1012.1 hPa WNW 5.8 km/h 5.8 km/h 98 % 0.0 mm
03:37 4.5 °C 4.2 °C 1013.1 hPa NNW 1.4 km/h 5.8 km/h 98 % 0.0 mm
03:42 4.5 °C 4.2 °C 1013.1 hPa West 4.7 km/h 6.9 km/h 98 % 0.0 mm
03:47 4.4 °C 4.1 °C 1013.1 hPa NW 2.1 km/h 6.9 km/h 98 % 0.0 mm
03:52 4.4 °C 4.1 °C 1013.1 hPa WNW 1.4 km/h 5.0 km/h 98 % 0.0 mm
03:57 4.4 °C 4.1 °C 1013.1 hPa North 1.4 km/h 7.6 km/h 98 % 0.0 mm
04:02 4.3 °C 4.0 °C 1013.1 hPa NNW 7.6 km/h 7.6 km/h 98 % 0.0 mm
04:07 4.3 °C 4.0 °C 1013.1 hPa NNW 7.6 km/h 7.6 km/h 98 % 0.0 mm
04:12 4.3 °C 4.0 °C 1013.1 hPa NNW 5.8 km/h 7.6 km/h 98 % 0.0 mm
04:17 4.3 °C 4.0 °C 1013.1 hPa NNW 9.0 km/h 9.0 km/h 98 % 0.0 mm
04:22 4.3 °C 4.0 °C 1013.1 hPa West 2.1 km/h 9.0 km/h 98 % 0.0 mm
04:27 4.3 °C 4.0 °C 1013.1 hPa WNW 2.6 km/h 9.0 km/h 98 % 0.0 mm
04:32 4.3 °C 4.0 °C 1013.1 hPa NNW 7.9 km/h 7.9 km/h 98 % 0.0 mm
04:37 4.4 °C 4.1 °C 1014.1 hPa North 1.8 km/h 7.9 km/h 98 % 0.0 mm
04:42 4.5 °C 4.2 °C 1014.1 hPa NNW 1.4 km/h 7.9 km/h 98 % 0.0 mm
04:47 4.5 °C 4.2 °C 1014.1 hPa North 6.4 km/h 6.4 km/h 98 % 0.0 mm
04:52 4.5 °C 4.2 °C 1014.1 hPa Calm   6.4 km/h 98 % 0.0 mm
04:57 4.5 °C 4.2 °C 1014.1 hPa WNW 2.6 km/h 7.6 km/h 98 % 0.0 mm
05:02 4.5 °C 4.2 °C 1014.1 hPa NW 5.5 km/h 7.6 km/h 98 % 0.0 mm
05:03 4.5 °C 4.2 °C 1014.1 hPa NW 5.5 km/h 7.6 km/h 98 % 0.0 mm
05:08 4.6 °C 4.3 °C 1014.1 hPa North 2.6 km/h 9.7 km/h 98 % 0.0 mm
05:13 4.6 °C 4.3 °C 1014.1 hPa NNW 2.6 km/h 9.7 km/h 98 % 0.0 mm
05:18 4.6 °C 4.3 °C 1014.1 hPa NW 5.8 km/h 5.8 km/h 98 % 0.0 mm
05:23 4.6 °C 4.3 °C 1014.1 hPa NNW 7.9 km/h 7.9 km/h 98 % 0.0 mm
05:28 4.6 °C 4.3 °C 1014.1 hPa Calm   7.9 km/h 98 % 0.0 mm
05:33 4.6 °C 4.3 °C 1014.1 hPa NW 1.8 km/h 7.9 km/h 98 % 0.0 mm
05:38 4.6 °C 4.3 °C 1015.1 hPa NW 1.8 km/h 1.8 km/h 98 % 0.0 mm
05:43 4.7 °C 4.4 °C 1015.1 hPa NW 1.8 km/h 1.8 km/h 98 % 0.0 mm
05:48 4.7 °C 4.4 °C 1015.1 hPa WNW 5.8 km/h 5.8 km/h 98 % 0.0 mm
05:53 4.7 °C 4.4 °C 1015.1 hPa WNW 5.8 km/h 5.8 km/h 98 % 0.0 mm
05:58 4.7 °C 4.4 °C 1015.1 hPa WNW 5.8 km/h 5.8 km/h 98 % 0.0 mm
06:03 4.8 °C 4.5 °C 1015.1 hPa WNW 5.8 km/h 5.8 km/h 98 % 0.0 mm
06:08 4.8 °C 4.5 °C 1015.1 hPa WNW 5.8 km/h 5.8 km/h 98 % 0.0 mm
06:13 4.9 °C 4.4 °C 1015.1 hPa WNW 5.8 km/h 5.8 km/h 97 % 0.0 mm
06:18 4.9 °C 4.4 °C 1015.1 hPa WNW 5.8 km/h 5.8 km/h 97 % 0.0 mm
06:23 4.8 °C 4.4 °C 1014.1 hPa WNW 5.8 km/h 5.8 km/h 97 % 0.0 mm
06:28 4.8 °C 4.4 °C 1014.1 hPa WNW 5.8 km/h 5.8 km/h 97 % 0.0 mm
06:33 4.7 °C 4.3 °C 1014.1 hPa WNW 5.8 km/h 5.8 km/h 97 % 0.0 mm
06:38 4.7 °C 4.3 °C 1015.1 hPa WNW 5.8 km/h 5.8 km/h 97 % 0.0 mm
06:43 4.7 °C 4.3 °C 1015.1 hPa WNW 5.8 km/h 5.8 km/h 97 % 0.0 mm
06:48 4.7 °C 4.3 °C 1015.1 hPa NNW 4.7 km/h 4.7 km/h 97 % 0.0 mm
06:53 4.7 °C 4.3 °C 1016.1 hPa North 3.2 km/h 6.4 km/h 97 % 0.0 mm
06:58 4.8 °C 4.4 °C 1016.1 hPa North 8.7 km/h 8.7 km/h 97 % 0.0 mm
07:03 4.8 °C 4.4 °C 1016.1 hPa NNW 1.8 km/h 8.7 km/h 97 % 0.0 mm
07:08 4.9 °C 4.3 °C 1016.1 hPa WNW 2.6 km/h 8.7 km/h 96 % 0.0 mm
07:13 4.9 °C 4.3 °C 1016.1 hPa Calm   3.2 km/h 96 % 0.0 mm
07:18 4.8 °C 4.2 °C 1016.1 hPa Calm   3.2 km/h 96 % 0.0 mm
07:23 4.8 °C 4.2 °C 1016.1 hPa Calm     96 % 0.0 mm
07:28 4.8 °C 4.2 °C 1016.1 hPa Calm     96 % 0.0 mm
07:33 4.8 °C 4.2 °C 1016.1 hPa WNW 4.0 km/h 4.0 km/h 96 % 0.0 mm
07:38 4.8 °C 4.2 °C 1016.1 hPa WNW 4.0 km/h 4.0 km/h 96 % 0.0 mm
07:43 4.7 °C 4.1 °C 1016.1 hPa WNW 4.0 km/h 4.0 km/h 96 % 0.0 mm
07:48 4.7 °C 4.1 °C 1016.1 hPa WNW 4.0 km/h 4.0 km/h 96 % 0.0 mm
07:53 4.5 °C 3.9 °C 1016.8 hPa Calm   4.0 km/h 96 % 0.0 mm
07:58 4.3 °C 3.6 °C 1016.8 hPa Calm     95 % 0.0 mm
08:03 4.2 °C 3.5 °C 1016.8 hPa Calm     95 % 0.0 mm
08:08 4.1 °C 3.4 °C 1016.8 hPa Calm     95 % 0.0 mm
08:13 4.1 °C 3.4 °C 1016.8 hPa Calm   1.4 km/h 95 % 0.0 mm
08:18 4.1 °C 3.4 °C 1016.8 hPa Calm   1.8 km/h 95 % 0.0 mm
08:23 4.1 °C 3.4 °C 1016.8 hPa ENE 2.6 km/h 2.6 km/h 95 % 0.0 mm
08:28 3.4 °C 2.7 °C 1016.8 hPa Calm   3.5 km/h 95 % 0.0 mm
08:33 3.3 °C 2.6 °C 1016.8 hPa Calm   3.5 km/h 95 % 0.0 mm
08:38 3.1 °C 2.4 °C 1016.8 hPa Calm     95 % 0.0 mm
08:43 3.1 °C 2.3 °C 1016.8 hPa Calm     95 % 0.0 mm
08:48 3.1 °C 2.3 °C 1016.8 hPa Calm     95 % 0.0 mm
08:53 3.1 °C 2.3 °C 1016.1 hPa Calm     95 % 0.0 mm
08:58 2.9 °C 2.4 °C 1016.1 hPa Calm   2.6 km/h 96 % 0.0 mm
09:03 2.8 °C 2.4 °C 1016.1 hPa Calm   2.6 km/h 97 % 0.0 mm
09:08 2.9 °C 2.5 °C 1016.1 hPa West 3.2 km/h 4.3 km/h 97 % 0.0 mm
09:13 2.9 °C 2.5 °C 1016.1 hPa Calm   4.3 km/h 97 % 0.0 mm
09:18 3.1 °C 2.8 °C 1016.1 hPa Calm   3.2 km/h 98 % 0.0 mm
09:23 3.2 °C 2.9 °C 1016.8 hPa Calm   1.4 km/h 98 % 0.0 mm
09:28 3.4 °C 3.2 °C 1016.8 hPa Calm     98 % 0.0 mm
09:33 3.7 °C 3.4 °C 1016.8 hPa Calm     98 % 0.0 mm
09:38 4.0 °C 3.7 °C 1016.1 hPa Calm     98 % 0.0 mm
09:43 4.3 °C 4.0 °C 1016.1 hPa Calm     98 % 0.0 mm
09:48 4.6 °C 4.3 °C 1016.1 hPa Calm   1.4 km/h 98 % 0.0 mm
09:53 4.7 °C 4.4 °C 1016.8 hPa Calm   1.4 km/h 98 % 0.0 mm
09:58 4.7 °C 4.4 °C 1016.8 hPa Calm     98 % 0.0 mm
10:03 4.9 °C 4.6 °C 1016.8 hPa Calm     98 % 0.0 mm
10:08 5.0 °C 4.7 °C 1016.8 hPa Calm     98 % 0.0 mm
10:13 5.2 °C 4.9 °C 1016.8 hPa Calm     98 % 0.0 mm
10:18 5.3 °C 5.0 °C 1016.8 hPa Calm     98 % 0.0 mm
10:23 5.3 °C 5.0 °C 1018.2 hPa Calm     98 % 0.0 mm
10:28 5.4 °C 5.1 °C 1018.2 hPa Calm     98 % 0.0 mm
10:33 5.5 °C 5.2 °C 1018.2 hPa Calm     98 % 0.0 mm
10:38 5.6 °C 5.3 °C 1018.2 hPa Calm     98 % 0.0 mm
10:43 5.6 °C 5.2 °C 1018.2 hPa Calm     97 % 0.0 mm
10:48 5.6 °C 5.2 °C 1018.2 hPa Calm     97 % 0.0 mm
10:53 5.7 °C 5.2 °C 1018.2 hPa Calm     97 % 0.0 mm
10:58 5.8 °C 5.3 °C 1018.2 hPa Calm     97 % 0.0 mm
11:03 5.8 °C 5.5 °C 1018.2 hPa Calm   3.2 km/h 98 % 0.0 mm
11:08 5.9 °C 5.4 °C 1018.2 hPa Calm   3.2 km/h 97 % 0.0 mm
11:13 5.9 °C 5.4 °C 1018.2 hPa Calm     97 % 0.0 mm
11:18 6.0 °C 5.6 °C 1018.2 hPa Calm     97 % 0.0 mm
11:23 6.0 °C 5.6 °C 1018.8 hPa Calm     97 % 0.0 mm
11:28 6.0 °C 5.6 °C 1018.8 hPa Calm     97 % 0.0 mm
11:33 6.0 °C 5.6 °C 1018.8 hPa Calm     97 % 0.0 mm
11:38 6.0 °C 5.6 °C 1018.8 hPa Calm     97 % 0.0 mm
11:43 6.0 °C 5.6 °C 1018.8 hPa Calm     97 % 0.0 mm
11:48 6.1 °C 5.6 °C 1018.8 hPa Calm     97 % 0.0 mm
11:53 6.1 °C 5.6 °C 1018.8 hPa Calm     97 % 0.0 mm
11:58 6.2 °C 5.7 °C 1018.8 hPa Calm     97 % 0.0 mm
12:03 6.2 °C 5.7 °C 1018.8 hPa Calm     97 % 0.0 mm
12:08 6.3 °C 5.8 °C 1018.8 hPa Calm     97 % 0.0 mm
12:13 6.3 °C 5.8 °C 1018.8 hPa Calm     97 % 0.0 mm
12:18 6.4 °C 5.9 °C 1018.8 hPa Calm     97 % 0.0 mm
12:23 6.4 °C 5.9 °C 1018.8 hPa Calm     97 % 0.0 mm
12:28 6.4 °C 6.0 °C 1018.8 hPa Calm     97 % 0.0 mm
12:33 6.6 °C 6.1 °C 1018.8 hPa Calm     97 % 0.0 mm
12:38 6.7 °C 6.2 °C 1018.8 hPa Calm     97 % 0.0 mm
12:43 6.7 °C 6.2 °C 1018.8 hPa SSE 1.8 km/h 5.0 km/h 97 % 0.0 mm
12:48 6.8 °C 6.4 °C 1018.8 hPa Calm   5.0 km/h 97 % 0.0 mm
12:53 6.9 °C 6.5 °C 1018.8 hPa Calm   2.1 km/h 97 % 0.0 mm
12:58 7.1 °C 6.6 °C 1018.8 hPa Calm   1.8 km/h 97 % 0.0 mm
13:03 7.3 °C 6.8 °C 1018.8 hPa Calm   4.0 km/h 97 % 0.0 mm
13:08 7.4 °C 7.0 °C 1018.2 hPa SW 5.5 km/h 5.5 km/h 97 % 0.0 mm
13:13 7.7 °C 7.3 °C 1018.2 hPa WSW 5.0 km/h 6.9 km/h 97 % 0.0 mm
13:18 7.9 °C 7.5 °C 1018.2 hPa WSW 4.0 km/h 6.9 km/h 97 % 0.0 mm
13:23 8.1 °C 7.4 °C 1018.2 hPa Calm   4.7 km/h 96 % 0.0 mm
13:28 8.1 °C 7.6 °C 1018.2 hPa SW 1.8 km/h 4.7 km/h 96 % 0.0 mm
13:33 8.2 °C 7.6 °C 1018.2 hPa Calm   4.7 km/h 96 % 0.0 mm
13:38 8.3 °C 7.7 °C 1018.2 hPa Calm   4.0 km/h 96 % 0.0 mm
13:43 8.4 °C 7.8 °C 1018.2 hPa SSW 1.8 km/h 4.3 km/h 96 % 0.0 mm
13:48 8.4 °C 7.8 °C 1018.2 hPa WSW 4.3 km/h 5.0 km/h 96 % 0.0 mm
13:53 8.4 °C 7.8 °C 1018.2 hPa SW 4.0 km/h 5.5 km/h 96 % 0.0 mm
13:58 8.4 °C 7.8 °C 1018.2 hPa Calm   5.8 km/h 96 % 0.0 mm
14:03 8.6 °C 8.0 °C 1018.2 hPa Calm   5.8 km/h 96 % 0.0 mm
14:08 8.6 °C 8.0 °C 1018.2 hPa WSW 5.0 km/h 6.9 km/h 96 % 0.0 mm
14:13 9.0 °C 8.3 °C 1018.2 hPa SW 4.0 km/h 6.9 km/h 95 % 0.0 mm
14:18 8.9 °C 8.2 °C 1018.2 hPa West 5.8 km/h 7.6 km/h 95 % 0.0 mm
14:23 8.7 °C 7.9 °C 1018.2 hPa West 7.6 km/h 10.8 km/h 95 % 0.0 mm
14:28 8.6 °C 7.9 °C 1018.2 hPa WSW 6.4 km/h 10.8 km/h 95 % 0.0 mm
14:33 9.0 °C 8.1 °C 1018.2 hPa WSW 7.9 km/h 8.7 km/h 94 % 0.0 mm
14:38 8.9 °C 7.8 °C 1018.2 hPa West 9.7 km/h 9.7 km/h 93 % 0.0 mm
14:43 9.0 °C 7.8 °C 1018.2 hPa WSW 6.9 km/h 12.6 km/h 92 % 0.0 mm
14:48 8.7 °C 7.0 °C 1018.2 hPa West 7.9 km/h 12.6 km/h 89 % 0.0 mm
14:53 9.0 °C 6.9 °C 1016.8 hPa WSW 6.1 km/h 13.0 km/h 87 % 0.0 mm
14:58 9.3 °C 7.3 °C 1016.8 hPa WSW 8.7 km/h 13.0 km/h 87 % 0.0 mm
15:03 9.7 °C 7.8 °C 1016.8 hPa West 9.0 km/h 9.7 km/h 88 % 0.0 mm
15:08 9.5 °C 7.1 °C 1018.2 hPa WSW 8.7 km/h 11.9 km/h 85 % 0.0 mm
15:13 9.5 °C 6.8 °C 1018.2 hPa WSW 7.9 km/h 11.9 km/h 83 % 0.0 mm
15:18 9.1 °C 6.4 °C 1018.2 hPa West 7.6 km/h 10.8 km/h 83 % 0.0 mm
15:23 8.9 °C 5.8 °C 1018.2 hPa West 9.7 km/h 10.8 km/h 81 % 0.0 mm
15:28 9.0 °C 6.1 °C 1018.2 hPa WSW 7.6 km/h 11.9 km/h 82 % 0.0 mm
15:33 8.9 °C 6.0 °C 1018.2 hPa WSW 7.9 km/h 11.9 km/h 82 % 0.0 mm
15:38 9.2 °C 6.5 °C 1018.2 hPa West 6.4 km/h 10.5 km/h 83 % 0.0 mm
15:43 9.4 °C 6.7 °C 1018.2 hPa Calm   8.7 km/h 83 % 0.0 mm
15:48 9.7 °C 6.9 °C 1018.2 hPa SW 3.2 km/h 7.9 km/h 83 % 0.0 mm
15:53 9.7 °C 6.9 °C 1018.2 hPa SW 4.7 km/h 9.0 km/h 83 % 0.0 mm
15:58 9.4 °C 6.5 °C 1018.2 hPa West 5.0 km/h 9.0 km/h 82 % 0.0 mm
16:03 9.1 °C 6.2 °C 1018.2 hPa WSW 5.5 km/h 8.7 km/h 82 % 0.0 mm
16:08 8.7 °C 5.8 °C 1018.2 hPa West 7.9 km/h 8.7 km/h 82 % 0.0 mm
16:13 8.5 °C 5.6 °C 1018.2 hPa West 5.8 km/h 8.7 km/h 82 % 0.0 mm
16:18 8.3 °C 5.6 °C 1018.2 hPa WSW 4.7 km/h 7.9 km/h 83 % 0.0 mm
16:23 8.2 °C 5.5 °C 1018.2 hPa WSW 5.8 km/h 6.9 km/h 83 % 0.0 mm
16:28 8.1 °C 5.6 °C 1018.2 hPa WSW 4.0 km/h 6.9 km/h 84 % 0.0 mm
16:33 8.1 °C 5.5 °C 1018.2 hPa West 4.7 km/h 6.1 km/h 84 % 0.0 mm
16:38 7.9 °C 5.6 °C 1018.2 hPa Calm   5.8 km/h 85 % 0.0 mm
16:43 7.8 °C 5.5 °C 1018.2 hPa WSW 4.3 km/h 6.4 km/h 85 % 0.0 mm
16:48 7.7 °C 5.6 °C 1018.2 hPa West 6.9 km/h 6.9 km/h 86 % 0.0 mm
16:53 7.7 °C 5.6 °C 1018.2 hPa Calm   6.9 km/h 86 % 0.0 mm
16:58 7.7 °C 5.6 °C 1018.2 hPa Calm   6.1 km/h 87 % 0.0 mm
17:03 7.7 °C 5.6 °C 1018.2 hPa Calm     87 % 0.0 mm
17:08 7.6 °C 5.7 °C 1018.2 hPa Calm     88 % 0.0 mm
17:13 7.6 °C 5.7 °C 1018.2 hPa Calm     88 % 0.0 mm
17:18 7.4 °C 5.8 °C 1018.2 hPa Calm     89 % 0.0 mm
17:23 7.3 °C 5.7 °C 1018.2 hPa Calm     89 % 0.0 mm
17:28 7.3 °C 5.7 °C 1018.2 hPa Calm     89 % 0.0 mm
17:33 7.3 °C 5.6 °C 1018.2 hPa Calm     89 % 0.0 mm
17:38 7.2 °C 5.6 °C 1018.2 hPa Calm     90 % 0.0 mm
17:43 7.1 °C 5.5 °C 1018.2 hPa Calm     90 % 0.0 mm
17:48 6.9 °C 5.4 °C 1018.2 hPa Calm     90 % 0.0 mm
17:53 6.9 °C 5.4 °C 1018.2 hPa Calm     90 % 0.0 mm
17:58 6.9 °C 5.6 °C 1018.2 hPa Calm     91 % 0.0 mm
18:03 6.8 °C 5.5 °C 1018.2 hPa Calm     91 % 0.0 mm
18:08 6.8 °C 5.5 °C 1018.2 hPa Calm     91 % 0.0 mm
18:09 6.8 °C 5.5 °C 1018.2 hPa Calm     91 % 0.0 mm
18:14 6.7 °C 5.4 °C 1018.2 hPa Calm     92 % 0.0 mm
18:19 6.7 °C 5.4 °C 1018.2 hPa Calm     92 % 0.0 mm
18:24 6.7 °C 5.4 °C 1018.2 hPa Calm     92 % 0.0 mm
18:29 6.6 °C 5.5 °C 1018.2 hPa Calm     93 % 0.0 mm
18:34 6.6 °C 5.5 °C 1018.2 hPa Calm   1.4 km/h 93 % 0.0 mm
18:39 6.6 °C 5.5 °C 1018.2 hPa Calm   1.8 km/h 93 % 0.0 mm
18:44 6.4 °C 5.4 °C 1018.2 hPa Calm   1.8 km/h 93 % 0.0 mm
18:49 6.4 °C 5.4 °C 1018.2 hPa Calm     93 % 0.0 mm
18:54 6.4 °C 5.3 °C 1018.2 hPa Calm     93 % 0.0 mm
18:59 6.3 °C 5.2 °C 1018.2 hPa Calm     93 % 0.0 mm
19:04 6.3 °C 5.2 °C 1018.2 hPa Calm     93 % 0.0 mm
19:09 6.2 °C 5.1 °C 1018.2 hPa Calm     93 % 0.0 mm
19:14 6.2 °C 5.1 °C 1018.2 hPa Calm     93 % 0.0 mm
19:19 6.2 °C 5.3 °C 1018.2 hPa Calm     94 % 0.0 mm
19:24 6.1 °C 5.2 °C 1018.2 hPa Calm     94 % 0.0 mm
19:29 6.0 °C 5.1 °C 1018.2 hPa ESE 1.8 km/h 3.2 km/h 94 % 0.0 mm
19:34 6.0 °C 5.1 °C 1018.2 hPa Calm   3.2 km/h 94 % 0.0 mm
19:39 6.0 °C 5.1 °C 1018.2 hPa Calm   2.6 km/h 94 % 0.0 mm
19:44 5.9 °C 5.0 °C 1018.2 hPa Calm   1.4 km/h 94 % 0.0 mm
19:49 5.9 °C 5.0 °C 1018.2 hPa Calm   1.4 km/h 94 % 0.0 mm
19:54 5.8 °C 5.1 °C 1018.2 hPa Calm   1.4 km/h 95 % 0.0 mm
19:55 5.8 °C 5.1 °C 1018.2 hPa Calm   1.4 km/h 95 % 0.0 mm
20:00 5.7 °C 4.9 °C 1018.2 hPa Calm     95 % 0.0 mm
20:05 5.7 °C 4.9 °C 1018.2 hPa Calm     95 % 0.0 mm
20:10 5.7 °C 4.9 °C 1018.2 hPa Calm     95 % 0.0 mm
20:15 5.7 °C 4.9 °C 1018.2 hPa Calm     95 % 0.0 mm
20:20 5.6 °C 4.8 °C 1018.2 hPa Calm     95 % 0.0 mm
20:25 5.6 °C 4.8 °C 1018.2 hPa Calm     95 % 0.0 mm
20:30 5.6 °C 4.8 °C 1018.2 hPa Calm     95 % 0.0 mm
20:35 5.6 °C 4.8 °C 1018.2 hPa Calm   2.1 km/h 95 % 0.0 mm
20:40 5.6 °C 4.8 °C 1016.8 hPa Calm   2.1 km/h 95 % 0.0 mm
20:45 5.6 °C 4.8 °C 1016.8 hPa Calm   1.4 km/h 95 % 0.0 mm
20:50 5.5 °C 4.8 °C 1016.8 hPa Calm     95 % 0.0 mm
20:55 5.5 °C 4.8 °C 1016.8 hPa Calm     95 % 0.0 mm
21:00 5.5 °C 4.8 °C 1016.8 hPa Calm     95 % 0.0 mm
21:05 5.5 °C 4.8 °C 1016.8 hPa Calm     95 % 0.0 mm
21:10 5.5 °C 4.8 °C 1016.8 hPa SE 1.8 km/h 1.8 km/h 95 % 0.0 mm
21:15 5.5 °C 4.8 °C 1016.8 hPa Calm   4.3 km/h 95 % 0.0 mm
21:20 5.5 °C 4.8 °C 1016.8 hPa Calm   4.7 km/h 95 % 0.0 mm
21:25 5.6 °C 4.8 °C 1016.1 hPa Calm   5.0 km/h 95 % 0.0 mm
21:30 5.6 °C 4.8 °C 1016.1 hPa Calm   5.0 km/h 95 % 0.0 mm
21:35 5.6 °C 4.8 °C 1016.1 hPa SE 2.1 km/h 5.0 km/h 95 % 0.0 mm
21:40 5.6 °C 4.8 °C 1016.8 hPa Calm   5.8 km/h 95 % 0.0 mm
21:45 5.6 °C 4.8 °C 1016.8 hPa Calm   7.2 km/h 95 % 0.0 mm
21:50 5.6 °C 4.8 °C 1016.8 hPa Calm   7.2 km/h 95 % 0.0 mm
21:55 5.6 °C 4.8 °C 1016.8 hPa SSE 4.0 km/h 4.7 km/h 95 % 0.0 mm
22:00 5.6 °C 4.8 °C 1016.8 hPa Calm   4.3 km/h 95 % 0.0 mm
22:05 5.6 °C 4.8 °C 1016.8 hPa SE 2.1 km/h 4.3 km/h 95 % 0.0 mm
22:10 5.6 °C 4.8 °C 1016.8 hPa SSE 2.1 km/h 4.7 km/h 95 % 0.0 mm
22:15 5.6 °C 4.8 °C 1016.8 hPa SSE 2.6 km/h 4.7 km/h 95 % 0.0 mm
22:20 5.6 °C 4.8 °C 1016.8 hPa SSE 3.2 km/h 4.7 km/h 95 % 0.0 mm
22:25 5.7 °C 4.9 °C 1016.8 hPa SSE 4.0 km/h 6.4 km/h 95 % 0.0 mm
22:30 5.7 °C 4.9 °C 1016.8 hPa Calm   6.4 km/h 95 % 0.0 mm
22:35 5.7 °C 4.9 °C 1016.8 hPa SSE 1.4 km/h 5.5 km/h 95 % 0.0 mm
22:40 5.7 °C 4.9 °C 1016.8 hPa SSE 5.0 km/h 5.5 km/h 95 % 0.0 mm
22:45 5.7 °C 4.9 °C 1016.8 hPa South 4.3 km/h 6.1 km/h 95 % 0.0 mm
22:50 5.7 °C 4.9 °C 1016.8 hPa SSE 3.2 km/h 6.1 km/h 95 % 0.0 mm
22:55 5.7 °C 4.9 °C 1016.8 hPa SSE 4.3 km/h 5.8 km/h 95 % 0.0 mm
23:00 5.7 °C 4.9 °C 1016.8 hPa SSE 5.5 km/h 9.3 km/h 95 % 0.0 mm
23:05 5.7 °C 4.9 °C 1016.8 hPa Calm   9.3 km/h 95 % 0.0 mm
23:10 5.8 °C 5.1 °C 1016.1 hPa SSE 4.3 km/h 8.7 km/h 95 % 0.0 mm
23:15 5.8 °C 4.9 °C 1016.1 hPa Calm   7.9 km/h 94 % 0.0 mm
23:20 5.8 °C 4.9 °C 1016.1 hPa SE 5.8 km/h 7.9 km/h 94 % 0.0 mm
23:25 5.8 °C 4.9 °C 1015.1 hPa SSE 6.1 km/h 7.9 km/h 94 % 0.0 mm
23:29 5.8 °C 4.9 °C 1015.1 hPa SSE 5.5 km/h 10.5 km/h 94 % 0.0 mm
23:34 5.8 °C 4.9 °C 1015.1 hPa SE 4.3 km/h 10.5 km/h 94 % 0.0 mm
23:39 5.8 °C 4.9 °C 1015.1 hPa SE 7.9 km/h 8.7 km/h 94 % 0.0 mm
23:44 5.8 °C 4.7 °C 1015.1 hPa SE 6.4 km/h 9.7 km/h 93 % 0.0 mm
23:49 5.8 °C 4.7 °C 1015.1 hPa SSE 5.5 km/h 9.7 km/h 93 % 0.0 mm
23:54 5.8 °C 4.7 °C 1015.1 hPa SE 6.1 km/h 10.1 km/h 93 % 0.0 mm
Le Gheer Warneton
Courtoisie de Weather Underground - 2.25 mb

Mise a jour : 16-12-17 12:12:11
Généré par Cumulus 1.9.4 (1099)